,,PressureMeas_1m,,PRMeasQMR101_1,,RHStat155_1m_1,,SRMeasQMS101R_1m,,TAStat155_1m_1,,GenWind_1,,GenWind_1,
2017-08-22, 07:00:06,VALID,916.789,VALID,0.0,VALID,96.994,VALID,44.908,VALID,18.154,VALID,78.0,VALID,0.0,
2017-08-22, 07:01:06,VALID,916.793,VALID,0.0,VALID,96.921,VALID,46.5,VALID,18.13,VALID,65.0,VALID,0.0,
2017-08-22, 07:02:06,VALID,916.798,VALID,0.0,VALID,96.937,VALID,48.138,VALID,18.137,VALID,42.0,VALID,0.303,
2017-08-22, 07:03:06,VALID,916.813,VALID,0.0,VALID,96.846,VALID,49.798,VALID,18.131,VALID,51.0,VALID,0.312,
2017-08-22, 07:04:06,VALID,916.831,VALID,0.0,VALID,96.833,VALID,51.507,VALID,18.145,VALID,55.0,VALID,0.377,
2017-08-22, 07:05:06,VALID,916.833,VALID,0.0,VALID,97.075,VALID,53.262,VALID,18.171,VALID,59.0,VALID,0.434,
2017-08-22, 07:06:06,VALID,916.846,VALID,0.0,VALID,97.035,VALID,55.056,VALID,18.156,VALID,67.0,VALID,0.491,
2017-08-22, 07:07:06,VALID,916.855,VALID,0.0,VALID,96.855,VALID,56.89,VALID,18.125,VALID,82.0,VALID,0.775,
2017-08-22, 07:08:06,VALID,916.851,VALID,0.0,VALID,96.637,VALID,58.766,VALID,18.131,VALID,88.0,VALID,0.93,
2017-08-22, 07:09:06,VALID,916.868,VALID,0.0,VALID,96.571,VALID,60.689,VALID,18.151,VALID,98.0,VALID,1.085,
2017-08-22, 07:10:06,VALID,916.848,VALID,0.0,VALID,96.453,VALID,62.637,VALID,18.17,VALID,96.0,VALID,0.996,
2017-08-22, 07:11:06,VALID,916.861,VALID,0.0,VALID,96.461,VALID,64.642,VALID,18.195,VALID,100.0,VALID,0.826,
2017-08-22, 07:12:06,VALID,916.861,VALID,0.0,VALID,96.498,VALID,66.746,VALID,18.217,VALID,100.0,VALID,0.711,
2017-08-22, 07:13:06,VALID,916.862,VALID,0.0,VALID,96.53,VALID,68.785,VALID,18.231,VALID,104.0,VALID,0.857,
2017-08-22, 07:14:06,VALID,916.86,VALID,0.0,VALID,96.317,VALID,70.658,VALID,18.239,VALID,102.0,VALID,1.005,
2017-08-22, 07:15:06,VALID,916.866,VALID,0.0,VALID,95.919,VALID,72.353,VALID,18.251,VALID,107.0,VALID,1.217,
2017-08-22, 07:16:06,VALID,916.864,VALID,0.0,VALID,95.929,VALID,73.879,VALID,18.28,VALID,112.0,VALID,1.186,
2017-08-22, 07:17:06,VALID,916.881,VALID,0.0,VALID,96.034,VALID,75.221,VALID,18.296,VALID,115.0,VALID,1.378,
2017-08-22, 07:18:06,VALID,916.878,VALID,0.0,VALID,96.091,VALID,76.505,VALID,18.313,VALID,117.0,VALID,1.355,
2017-08-22, 07:19:06,VALID,916.884,VALID,0.0,VALID,96.241,VALID,77.752,VALID,18.34,VALID,112.0,VALID,1.52,
2017-08-22, 07:20:06,VALID,916.88,VALID,0.0,VALID,96.147,VALID,78.994,VALID,18.353,VALID,115.0,VALID,1.418,
2017-08-22, 07:21:06,VALID,916.894,VALID,0.0,VALID,96.37,VALID,80.346,VALID,18.357,VALID,125.0,VALID,1.47,
2017-08-22, 07:22:06,VALID,916.901,VALID,0.0,VALID,96.381,VALID,82.004,VALID,18.357,VALID,115.0,VALID,1.261,
2017-08-22, 07:23:06,VALID,916.896,VALID,0.0,VALID,96.381,VALID,84.095,VALID,18.373,VALID,100.0,VALID,1.046,
2017-08-22, 07:24:06,VALID,916.905,VALID,0.0,VALID,96.458,VALID,86.644,VALID,18.398,VALID,94.0,VALID,1.196,
2017-08-22, 07:25:06,VALID,916.902,VALID,0.0,VALID,95.751,VALID,89.568,VALID,18.371,VALID,95.0,VALID,1.441,
2017-08-22, 07:26:06,VALID,916.905,VALID,0.0,VALID,95.635,VALID,92.538,VALID,18.391,VALID,90.0,VALID,1.551,
2017-08-22, 07:27:06,VALID,916.922,VALID,0.0,VALID,94.884,VALID,95.171,VALID,18.414,VALID,108.0,VALID,1.733,
2017-08-22, 07:28:06,VALID,916.942,VALID,0.0,VALID,94.859,VALID,96.919,VALID,18.476,VALID,105.0,VALID,1.284,
2017-08-22, 07:29:06,VALID,916.953,VALID,0.0,VALID,94.592,VALID,97.632,VALID,18.498,VALID,120.0,VALID,1.389,
2017-08-22, 07:30:06,VALID,916.961,VALID,0.0,VALID,94.991,VALID,97.236,VALID,18.54,VALID,131.0,VALID,0.815,
2017-08-22, 07:31:06,VALID,916.963,VALID,0.0,VALID,95.441,VALID,96.116,VALID,18.574,VALID,120.0,VALID,0.823,
2017-08-22, 07:32:06,VALID,916.953,VALID,0.0,VALID,95.353,VALID,94.678,VALID,18.587,VALID,130.0,VALID,1.276,
2017-08-22, 07:33:06,VALID,916.96,VALID,0.0,VALID,95.245,VALID,93.467,VALID,18.586,VALID,139.0,VALID,1.268,
2017-08-22, 07:34:06,VALID,916.964,VALID,0.0,VALID,95.518,VALID,92.748,VALID,18.581,VALID,137.0,VALID,1.217,
2017-08-22, 07:35:06,VALID,916.98,VALID,0.0,VALID,95.661,VALID,92.339,VALID,18.58,VALID,128.0,VALID,1.079,
2017-08-22, 07:36:06,VALID,916.979,VALID,0.0,VALID,95.825,VALID,92.246,VALID,18.587,VALID,134.0,VALID,1.036,
2017-08-22, 07:37:06,VALID,916.981,VALID,0.0,VALID,95.347,VALID,92.555,VALID,18.61,VALID,128.0,VALID,1.062,
2017-08-22, 07:38:06,VALID,916.988,VALID,0.0,VALID,94.98,VALID,93.621,VALID,18.645,VALID,139.0,VALID,1.427,
2017-08-22, 07:39:06,VALID,917.013,VALID,0.0,VALID,94.794,VALID,95.681,VALID,18.634,VALID,147.0,VALID,1.229,
2017-08-22, 07:40:06,VALID,917.029,VALID,0.0,VALID,95.259,VALID,98.829,VALID,18.624,VALID,137.0,VALID,1.021,
2017-08-22, 07:41:06,VALID,917.035,VALID,0.0,VALID,95.056,VALID,102.807,VALID,18.623,VALID,129.0,VALID,1.314,
2017-08-22, 07:42:06,VALID,917.043,VALID,0.0,VALID,94.814,VALID,107.211,VALID,18.642,VALID,128.0,VALID,1.068,
2017-08-22, 07:43:06,VALID,917.053,VALID,0.0,VALID,94.65,VALID,111.316,VALID,18.687,VALID,114.0,VALID,1.218,
2017-08-22, 07:44:06,VALID,917.067,VALID,0.0,VALID,94.244,VALID,114.751,VALID,18.725,VALID,120.0,VALID,1.049,
2017-08-22, 07:45:06,VALID,917.088,VALID,0.0,VALID,94.572,VALID,117.631,VALID,18.78,VALID,120.0,VALID,0.746,
2017-08-22, 07:46:06,VALID,917.081,VALID,0.0,VALID,93.873,VALID,120.102,VALID,18.815,VALID,122.0,VALID,1.199,
2017-08-22, 07:47:06,VALID,917.089,VALID,0.0,VALID,93.29,VALID,122.513,VALID,18.887,VALID,120.0,VALID,1.083,
2017-08-22, 07:48:06,VALID,917.084,VALID,0.0,VALID,92.927,VALID,125.121,VALID,18.952,VALID,123.0,VALID,1.16,
2017-08-22, 07:49:06,VALID,917.093,VALID,0.0,VALID,92.358,VALID,128.084,VALID,19.009,VALID,132.0,VALID,1.23,
2017-08-22, 07:50:06,VALID,917.095,VALID,0.0,VALID,91.813,VALID,131.239,VALID,19.045,VALID,128.0,VALID,1.421,
2017-08-22, 07:51:06,VALID,917.1,VALID,0.0,VALID,91.668,VALID,133.902,VALID,19.062,VALID,135.0,VALID,1.186,
2017-08-22, 07:52:06,VALID,917.091,VALID,0.0,VALID,91.733,VALID,135.774,VALID,19.06,VALID,134.0,VALID,1.259,
2017-08-22, 07:53:06,VALID,917.105,VALID,0.0,VALID,92.676,VALID,136.77,VALID,19.058,VALID,136.0,VALID,1.197,
2017-08-22, 07:54:06,VALID,917.111,VALID,0.0,VALID,92.512,VALID,137.414,VALID,19.018,VALID,126.0,VALID,1.312,
2017-08-22, 07:55:06,VALID,917.125,VALID,0.0,VALID,93.058,VALID,137.901,VALID,19.011,VALID,124.0,VALID,1.123,
2017-08-22, 07:56:06,VALID,917.135,VALID,0.0,VALID,93.21,VALID,138.476,VALID,19.028,VALID,132.0,VALID,1.042,
2017-08-22, 07:57:06,VALID,917.152,VALID,0.0,VALID,92.945,VALID,139.475,VALID,19.033,VALID,133.0,VALID,1.268,
2017-08-22, 07:58:06,VALID,917.164,VALID,0.0,VALID,92.642,VALID,140.672,VALID,19.033,VALID,135.0,VALID,1.448,
2017-08-22, 07:59:06,VALID,917.17,VALID,0.0,VALID,92.656,VALID,142.126,VALID,19.054,VALID,133.0,VALID,1.011,
2017-08-22, 08:00:06,VALID,917.189,VALID,0.0,VALID,93.489,VALID,143.831,VALID,19.07,VALID,137.0,VALID,1.332,
2017-08-22, 08:01:06,VALID,917.209,VALID,0.0,VALID,93.773,VALID,145.745,VALID,19.003,VALID,141.0,VALID,1.366,
2017-08-22, 08:02:06,VALID,917.219,VALID,0.0,VALID,94.171,VALID,147.574,VALID,18.949,VALID,130.0,VALID,1.257,
2017-08-22, 08:03:06,VALID,917.206,VALID,0.0,VALID,94.166,VALID,149.28,VALID,18.953,VALID,125.0,VALID,1.041,
2017-08-22, 08:04:06,VALID,917.21,VALID,0.0,VALID,94.046,VALID,151.01,VALID,18.967,VALID,117.0,VALID,1.472,
2017-08-22, 08:05:06,VALID,917.219,VALID,0.0,VALID,94.204,VALID,152.634,VALID,18.996,VALID,117.0,VALID,1.335,
2017-08-22, 08:06:06,VALID,917.242,VALID,0.0,VALID,94.493,VALID,154.245,VALID,19.056,VALID,124.0,VALID,0.982,
2017-08-22, 08:07:06,VALID,917.258,VALID,0.0,VALID,94.989,VALID,156.047,VALID,19.135,VALID,101.0,VALID,0.887,
2017-08-22, 08:08:06,VALID,917.275,VALID,0.0,VALID,94.542,VALID,158.055,VALID,19.183,VALID,99.0,VALID,1.106,
2017-08-22, 08:09:06,VALID,917.286,VALID,0.0,VALID,92.358,VALID,159.878,VALID,19.235,VALID,95.0,VALID,1.102,
2017-08-22, 08:10:06,VALID,917.306,VALID,0.0,VALID,92.122,VALID,161.571,VALID,19.266,VALID,94.0,VALID,1.237,
2017-08-22, 08:11:06,VALID,917.329,VALID,0.0,VALID,91.077,VALID,162.71,VALID,19.276,VALID,92.0,VALID,0.961,
2017-08-22, 08:12:06,VALID,917.342,VALID,0.0,VALID,91.909,VALID,163.375,VALID,19.278,VALID,96.0,VALID,1.079,
2017-08-22, 08:13:06,VALID,917.348,VALID,0.0,VALID,91.096,VALID,164.038,VALID,19.278,VALID,108.0,VALID,1.12,
2017-08-22, 08:14:06,VALID,917.37,VALID,0.0,VALID,92.242,VALID,164.901,VALID,19.305,VALID,102.0,VALID,1.008,
2017-08-22, 08:15:06,VALID,917.378,VALID,0.0,VALID,91.964,VALID,165.921,VALID,19.301,VALID,102.0,VALID,1.134,
2017-08-22, 08:16:06,VALID,917.381,VALID,0.0,VALID,90.509,VALID,167.28,VALID,19.264,VALID,97.0,VALID,1.038,
2017-08-22, 08:17:06,VALID,917.392,VALID,0.0,VALID,91.813,VALID,169.107,VALID,19.269,VALID,116.0,VALID,1.095,
2017-08-22, 08:18:06,VALID,917.399,VALID,0.0,VALID,90.817,VALID,171.511,VALID,19.275,VALID,118.0,VALID,1.264,
2017-08-22, 08:19:06,VALID,917.397,VALID,0.0,VALID,90.732,VALID,174.529,VALID,19.275,VALID,110.0,VALID,1.053,
2017-08-22, 08:20:06,VALID,917.405,VALID,0.0,VALID,92.111,VALID,177.794,VALID,19.322,VALID,109.0,VALID,0.67,
2017-08-22, 08:21:06,VALID,917.404,VALID,0.0,VALID,92.98,VALID,181.376,VALID,19.397,VALID,128.0,VALID,0.48,
2017-08-22, 08:22:06,VALID,917.394,VALID,0.0,VALID,91.759,VALID,185.632,VALID,19.435,VALID,117.0,VALID,0.975,
2017-08-22, 08:23:06,VALID,917.399,VALID,0.0,VALID,90.645,VALID,190.667,VALID,19.492,VALID,123.0,VALID,0.691,
2017-08-22, 08:24:06,VALID,917.387,VALID,0.0,VALID,91.419,VALID,196.75,VALID,19.559,VALID,131.0,VALID,0.549,
2017-08-22, 08:25:06,VALID,917.377,VALID,0.0,VALID,92.011,VALID,203.978,VALID,19.64,VALID,147.0,VALID,0.841,
2017-08-22, 08:26:06,VALID,917.378,VALID,0.0,VALID,91.189,VALID,212.614,VALID,19.67,VALID,136.0,VALID,0.62,
2017-08-22, 08:27:06,VALID,917.388,VALID,0.0,VALID,91.58,VALID,222.132,VALID,19.699,VALID,129.0,VALID,0.658,
2017-08-22, 08:28:06,VALID,917.392,VALID,0.0,VALID,92.3,VALID,236.209,VALID,19.733,VALID,130.0,VALID,0.531,
2017-08-22, 08:29:06,VALID,917.401,VALID,0.0,VALID,92.862,VALID,276.666,VALID,19.791,VALID,147.0,VALID,0.563,
2017-08-22, 08:30:06,VALID,917.422,VALID,0.0,VALID,91.837,VALID,356.863,VALID,19.844,VALID,139.0,VALID,0.208,
2017-08-22, 08:31:06,VALID,917.456,VALID,0.0,VALID,92.929,VALID,542.6,VALID,19.966,VALID,149.0,VALID,0.489,
2017-08-22, 08:32:06,VALID,917.472,VALID,0.0,VALID,91.492,VALID,505.336,VALID,20.096,VALID,145.0,VALID,0.807,
2017-08-22, 08:33:06,VALID,917.494,VALID,0.0,VALID,92.697,VALID,531.258,VALID,20.314,VALID,136.0,VALID,0.416,
2017-08-22, 08:34:06,VALID,917.515,VALID,0.0,VALID,92.67,VALID,389.294,VALID,20.496,VALID,152.0,VALID,0.693,
2017-08-22, 08:35:06,VALID,917.521,VALID,0.0,VALID,89.969,VALID,302.78,VALID,20.597,VALID,121.0,VALID,0.705,
2017-08-22, 08:36:06,VALID,917.55,VALID,0.0,VALID,88.717,VALID,292.038,VALID,20.664,VALID,98.0,VALID,0.702,
2017-08-22, 08:37:06,VALID,917.575,VALID,0.0,VALID,85.473,VALID,283.83,VALID,20.675,VALID,95.0,VALID,0.859,
2017-08-22, 08:38:06,VALID,917.594,VALID,0.0,VALID,85.922,VALID,272.35,VALID,20.674,VALID,82.0,VALID,0.875,
2017-08-22, 08:39:06,VALID,917.589,VALID,0.0,VALID,86.312,VALID,256.379,VALID,20.699,VALID,81.0,VALID,0.949,
2017-08-22, 08:40:06,VALID,917.606,VALID,0.0,VALID,85.58,VALID,239.929,VALID,20.706,VALID,79.0,VALID,1.118,
2017-08-22, 08:41:06,VALID,917.613,VALID,0.0,VALID,84.599,VALID,225.579,VALID,20.691,VALID,80.0,VALID,1.245,
2017-08-22, 08:42:06,VALID,917.615,VALID,0.0,VALID,85.7,VALID,215.072,VALID,20.678,VALID,98.0,VALID,1.002,
2017-08-22, 08:43:06,VALID,917.62,VALID,0.0,VALID,86.468,VALID,209.816,VALID,20.669,VALID,104.0,VALID,1.023,
2017-08-22, 08:44:06,VALID,917.628,VALID,0.0,VALID,86.002,VALID,210.296,VALID,20.662,VALID,106.0,VALID,1.557,
2017-08-22, 08:45:06,VALID,917.625,VALID,0.0,VALID,87.996,VALID,215.317,VALID,20.681,VALID,137.0,VALID,0.822,
2017-08-22, 08:46:06,VALID,917.625,VALID,0.0,VALID,88.87,VALID,221.523,VALID,20.675,VALID,147.0,VALID,0.917,
2017-08-22, 08:47:06,VALID,917.628,VALID,0.0,VALID,89.451,VALID,224.686,VALID,20.693,VALID,142.0,VALID,0.579,
2017-08-22, 08:48:06,VALID,917.625,VALID,0.0,VALID,89.202,VALID,223.458,VALID,20.72,VALID,157.0,VALID,0.488,
2017-08-22, 08:49:06,VALID,917.616,VALID,0.0,VALID,89.312,VALID,220.062,VALID,20.75,VALID,161.0,VALID,0.276,
2017-08-22, 08:50:06,VALID,917.614,VALID,0.0,VALID,89.52,VALID,217.645,VALID,20.794,VALID,149.0,VALID,0.093,
2017-08-22, 08:51:06,VALID,917.612,VALID,0.0,VALID,88.416,VALID,217.084,VALID,20.828,VALID,145.0,VALID,0.068,
2017-08-22, 08:52:06,VALID,917.574,VALID,0.0,VALID,87.606,VALID,219.079,VALID,20.842,VALID,157.0,VALID,0.398,
2017-08-22, 08:53:06,VALID,917.56,VALID,0.0,VALID,88.36,VALID,222.945,VALID,20.831,VALID,154.0,VALID,0.332,
2017-08-22, 08:54:06,VALID,917.553,VALID,0.0,VALID,87.866,VALID,227.563,VALID,20.841,VALID,155.0,VALID,0.001,
2017-08-22, 08:55:06,VALID,917.528,VALID,0.0,VALID,87.87,VALID,232.619,VALID,20.879,VALID,45.0,VALID,0.401,
2017-08-22, 08:56:06,VALID,917.531,VALID,0.0,VALID,88.172,VALID,238.296,VALID,20.933,VALID,11.0,VALID,0.112,
2017-08-22, 08:57:06,VALID,917.54,VALID,0.0,VALID,89.455,VALID,243.91,VALID,21.006,VALID,262.0,VALID,0.598,
2017-08-22, 08:58:06,VALID,917.538,VALID,0.0,VALID,92.121,VALID,248.773,VALID,20.947,VALID,261.0,VALID,0.455,
2017-08-22, 08:59:06,VALID,917.525,VALID,0.0,VALID,92.613,VALID,253.447,VALID,20.896,VALID,301.0,VALID,0.095,
2017-08-22, 09:00:06,VALID,917.526,VALID,0.0,VALID,92.031,VALID,258.032,VALID,20.916,VALID,340.0,VALID,0.099,
2017-08-22, 09:01:06,VALID,917.531,VALID,0.0,VALID,92.118,VALID,262.379,VALID,20.97,VALID,309.0,VALID,0.095,
2017-08-22, 09:02:06,VALID,917.526,VALID,0.0,VALID,91.42,VALID,267.587,VALID,21.02,VALID,254.0,VALID,0.097,
2017-08-22, 09:03:06,VALID,917.531,VALID,0.0,VALID,91.053,VALID,273.399,VALID,21.071,VALID,254.0,VALID,0.0,
2017-08-22, 09:04:06,VALID,917.559,VALID,0.0,VALID,90.165,VALID,279.308,VALID,21.131,VALID,254.0,VALID,0.018,
2017-08-22, 09:05:06,VALID,917.57,VALID,0.0,VALID,87.921,VALID,285.093,VALID,21.195,VALID,253.0,VALID,0.103,
2017-08-22, 09:06:06,VALID,917.575,VALID,0.0,VALID,89.435,VALID,293.94,VALID,21.257,VALID,253.0,VALID,0.105,
2017-08-22, 09:07:06,VALID,917.589,VALID,0.0,VALID,91.298,VALID,304.691,VALID,21.285,VALID,255.0,VALID,0.129,
2017-08-22, 09:08:06,VALID,917.583,VALID,0.0,VALID,89.523,VALID,316.102,VALID,21.296,VALID,255.0,VALID,0.361,
2017-08-22, 09:09:06,VALID,917.581,VALID,0.0,VALID,90.741,VALID,325.806,VALID,21.283,VALID,254.0,VALID,0.4,
2017-08-22, 09:10:06,VALID,917.57,VALID,0.0,VALID,91.756,VALID,332.962,VALID,21.275,VALID,254.0,VALID,0.15,
2017-08-22, 09:11:06,VALID,917.57,VALID,0.0,VALID,88.619,VALID,338.239,VALID,21.288,VALID,254.0,VALID,0.038,
2017-08-22, 09:12:06,VALID,917.553,VALID,0.0,VALID,86.984,VALID,340.938,VALID,21.365,VALID,253.0,VALID,0.0,
2017-08-22, 09:13:06,VALID,917.535,VALID,0.0,VALID,89.091,VALID,341.843,VALID,21.482,VALID,252.0,VALID,0.001,
2017-08-22, 09:14:06,VALID,917.527,VALID,0.0,VALID,82.858,VALID,341.933,VALID,21.57,VALID,264.0,VALID,0.047,
2017-08-22, 09:15:06,VALID,917.528,VALID,0.0,VALID,82.203,VALID,341.774,VALID,21.65,VALID,264.0,VALID,0.0,
2017-08-22, 09:16:06,VALID,917.541,VALID,0.0,VALID,82.68,VALID,342.189,VALID,21.737,VALID,303.0,VALID,0.141,
2017-08-22, 09:17:06,VALID,917.565,VALID,0.0,VALID,81.182,VALID,343.372,VALID,21.862,VALID,339.0,VALID,0.0,
2017-08-22, 09:18:06,VALID,917.586,VALID,0.0,VALID,81.485,VALID,345.931,VALID,22.008,VALID,339.0,VALID,0.01,
2017-08-22, 09:19:06,VALID,917.597,VALID,0.0,VALID,77.01,VALID,349.764,VALID,22.105,VALID,339.0,VALID,0.015,
2017-08-22, 09:20:06,VALID,917.609,VALID,0.0,VALID,78.618,VALID,354.341,VALID,22.19,VALID,20.0,VALID,0.161,
2017-08-22, 09:21:06,VALID,917.608,VALID,0.0,VALID,78.672,VALID,359.996,VALID,22.285,VALID,72.0,VALID,0.147,
2017-08-22, 09:22:06,VALID,917.609,VALID,0.0,VALID,77.92,VALID,367.261,VALID,22.356,VALID,75.0,VALID,0.062,
2017-08-22, 09:23:06,VALID,917.592,VALID,0.0,VALID,77.788,VALID,375.68,VALID,22.441,VALID,86.0,VALID,0.338,
2017-08-22, 09:24:06,VALID,917.578,VALID,0.0,VALID,78.314,VALID,384.126,VALID,22.536,VALID,51.0,VALID,0.804,
2017-08-22, 09:25:06,VALID,917.573,VALID,0.0,VALID,82.17,VALID,392.496,VALID,22.571,VALID,66.0,VALID,0.428,
2017-08-22, 09:26:06,VALID,917.542,VALID,0.0,VALID,83.161,VALID,400.944,VALID,22.573,VALID,52.0,VALID,0.878,
2017-08-22, 09:27:06,VALID,917.535,VALID,0.0,VALID,83.683,VALID,412.264,VALID,22.531,VALID,8.0,VALID,0.416,
2017-08-22, 09:28:06,VALID,917.546,VALID,0.0,VALID,85.004,VALID,429.779,VALID,22.601,VALID,33.0,VALID,0.284,
2017-08-22, 09:29:06,VALID,917.554,VALID,0.0,VALID,83.86,VALID,457.39,VALID,22.736,VALID,58.0,VALID,0.021,
2017-08-22, 09:30:06,VALID,917.568,VALID,0.0,VALID,82.021,VALID,465.573,VALID,22.871,VALID,58.0,VALID,0.0,
2017-08-22, 09:31:06,VALID,917.573,VALID,0.0,VALID,82.463,VALID,506.997,VALID,23.08,VALID,58.0,VALID,0.0,
2017-08-22, 09:32:06,VALID,917.583,VALID,0.0,VALID,82.681,VALID,626.912,VALID,23.313,VALID,58.0,VALID,0.0,
2017-08-22, 09:33:06,VALID,917.602,VALID,0.0,VALID,81.726,VALID,740.484,VALID,23.569,VALID,58.0,VALID,0.047,
2017-08-22, 09:34:06,VALID,917.609,VALID,0.0,VALID,80.729,VALID,659.249,VALID,23.847,VALID,58.0,VALID,0.0,
2017-08-22, 09:35:06,VALID,917.609,VALID,0.0,VALID,81.129,VALID,614.383,VALID,24.133,VALID,50.0,VALID,0.005,
2017-08-22, 09:36:06,VALID,917.598,VALID,0.0,VALID,78.122,VALID,545.743,VALID,24.19,VALID,294.0,VALID,0.386,
2017-08-22, 09:37:06,VALID,917.599,VALID,0.0,VALID,76.594,VALID,516.826,VALID,24.072,VALID,305.0,VALID,0.364,
2017-08-22, 09:38:06,VALID,917.606,VALID,0.0,VALID,78.185,VALID,531.273,VALID,23.896,VALID,298.0,VALID,0.589,
2017-08-22, 09:39:06,VALID,917.6,VALID,0.0,VALID,72.349,VALID,542.531,VALID,23.697,VALID,282.0,VALID,0.52,
2017-08-22, 09:40:06,VALID,917.618,VALID,0.0,VALID,69.584,VALID,530.226,VALID,23.601,VALID,290.0,VALID,0.867,
2017-08-22, 09:41:06,VALID,917.627,VALID,0.0,VALID,73.44,VALID,523.258,VALID,23.516,VALID,360.0,VALID,0.771,
2017-08-22, 09:42:06,VALID,917.631,VALID,0.0,VALID,68.377,VALID,526.348,VALID,23.51,VALID,28.0,VALID,0.784,
2017-08-22, 09:43:06,VALID,917.634,VALID,0.0,VALID,70.368,VALID,537.767,VALID,23.685,VALID,2.0,VALID,0.485,
2017-08-22, 09:44:06,VALID,917.634,VALID,0.0,VALID,72.394,VALID,523.647,VALID,23.857,VALID,331.0,VALID,0.453,
2017-08-22, 09:45:06,VALID,917.632,VALID,0.0,VALID,76.265,VALID,504.866,VALID,23.881,VALID,22.0,VALID,0.389,
2017-08-22, 09:46:06,VALID,917.625,VALID,0.0,VALID,76.781,VALID,479.108,VALID,24.015,VALID,340.0,VALID,0.706,
2017-08-22, 09:47:06,VALID,917.628,VALID,0.0,VALID,71.892,VALID,457.18,VALID,24.128,VALID,316.0,VALID,0.595,
2017-08-22, 09:48:06,VALID,917.631,VALID,0.0,VALID,70.147,VALID,437.456,VALID,24.084,VALID,6.0,VALID,0.168,
2017-08-22, 09:49:06,VALID,917.63,VALID,0.0,VALID,72.2,VALID,422.075,VALID,24.1,VALID,315.0,VALID,0.399,
2017-08-22, 09:50:06,VALID,917.65,VALID,0.0,VALID,71.433,VALID,410.949,VALID,24.045,VALID,281.0,VALID,0.397,
2017-08-22, 09:51:06,VALID,917.666,VALID,0.0,VALID,74.928,VALID,404.498,VALID,23.925,VALID,241.0,VALID,0.395,
2017-08-22, 09:52:06,VALID,917.682,VALID,0.0,VALID,78.622,VALID,404.413,VALID,23.828,VALID,265.0,VALID,0.346,
2017-08-22, 09:53:06,VALID,917.683,VALID,0.0,VALID,77.118,VALID,406.771,VALID,23.754,VALID,315.0,VALID,0.146,
2017-08-22, 09:54:06,VALID,917.693,VALID,0.0,VALID,76.244,VALID,411.321,VALID,23.851,VALID,3.0,VALID,0.35,
2017-08-22, 09:55:06,VALID,917.694,VALID,0.0,VALID,75.988,VALID,421.805,VALID,24.04,VALID,7.0,VALID,0.463,
2017-08-22, 09:56:06,VALID,917.704,VALID,0.0,VALID,77.008,VALID,440.796,VALID,24.156,VALID,340.0,VALID,0.584,
2017-08-22, 09:57:06,VALID,917.71,VALID,0.0,VALID,79.674,VALID,478.628,VALID,24.065,VALID,332.0,VALID,0.646,
2017-08-22, 09:58:06,VALID,917.697,VALID,0.0,VALID,78.604,VALID,527.601,VALID,24.015,VALID,20.0,VALID,0.921,
2017-08-22, 09:59:06,VALID,917.69,VALID,0.0,VALID,71.62,VALID,560.136,VALID,23.956,VALID,8.0,VALID,1.612,
2017-08-22, 10:00:06,VALID,917.68,VALID,0.0,VALID,70.45,VALID,526.07,VALID,23.763,VALID,359.0,VALID,1.06,
2017-08-22, 10:01:06,VALID,917.678,VALID,0.0,VALID,71.318,VALID,523.742,VALID,23.821,VALID,343.0,VALID,0.563,
2017-08-22, 10:02:06,VALID,917.674,VALID,0.0,VALID,71.373,VALID,533.131,VALID,23.901,VALID,48.0,VALID,0.305,
2017-08-22, 10:03:06,VALID,917.679,VALID,0.0,VALID,72.94,VALID,537.728,VALID,24.036,VALID,252.0,VALID,0.417,
2017-08-22, 10:04:06,VALID,917.688,VALID,0.0,VALID,73.34,VALID,540.673,VALID,24.097,VALID,321.0,VALID,0.304,
2017-08-22, 10:05:06,VALID,917.693,VALID,0.0,VALID,72.197,VALID,528.402,VALID,24.217,VALID,319.0,VALID,0.256,
2017-08-22, 10:06:06,VALID,917.678,VALID,0.0,VALID,73.653,VALID,509.162,VALID,24.29,VALID,266.0,VALID,0.01,
2017-08-22, 10:07:06,VALID,917.681,VALID,0.0,VALID,74.834,VALID,518.486,VALID,24.473,VALID,245.0,VALID,0.072,
2017-08-22, 10:08:06,VALID,917.67,VALID,0.0,VALID,73.642,VALID,524.784,VALID,24.588,VALID,242.0,VALID,0.121,
2017-08-22, 10:09:06,VALID,917.657,VALID,0.0,VALID,73.762,VALID,505.036,VALID,24.617,VALID,240.0,VALID,0.13,
2017-08-22, 10:10:06,VALID,917.658,VALID,0.0,VALID,75.112,VALID,496.238,VALID,24.722,VALID,251.0,VALID,0.104,
2017-08-22, 10:11:06,VALID,917.658,VALID,0.0,VALID,71.557,VALID,505.562,VALID,24.883,VALID,326.0,VALID,0.354,
2017-08-22, 10:12:06,VALID,917.672,VALID,0.0,VALID,71.336,VALID,518.83,VALID,24.904,VALID,322.0,VALID,0.275,
2017-08-22, 10:13:06,VALID,917.676,VALID,0.0,VALID,67.37,VALID,499.41,VALID,24.886,VALID,358.0,VALID,0.167,
2017-08-22, 10:14:06,VALID,917.685,VALID,0.0,VALID,69.634,VALID,476.164,VALID,24.856,VALID,292.0,VALID,0.512,
2017-08-22, 10:15:06,VALID,917.704,VALID,0.0,VALID,71.066,VALID,463.08,VALID,24.869,VALID,360.0,VALID,1.146,
2017-08-22, 10:16:06,VALID,917.719,VALID,0.0,VALID,68.245,VALID,455.602,VALID,24.765,VALID,1.0,VALID,0.624,
2017-08-22, 10:17:06,VALID,917.736,VALID,0.0,VALID,69.187,VALID,453.741,VALID,24.713,VALID,353.0,VALID,0.262,
2017-08-22, 10:18:06,VALID,917.737,VALID,0.0,VALID,68.468,VALID,456.785,VALID,24.804,VALID,315.0,VALID,0.249,
2017-08-22, 10:19:06,VALID,917.748,VALID,0.0,VALID,69.319,VALID,456.63,VALID,24.834,VALID,7.0,VALID,0.877,
2017-08-22, 10:20:06,VALID,917.757,VALID,0.0,VALID,71.017,VALID,456.368,VALID,24.564,VALID,13.0,VALID,0.637,
2017-08-22, 10:21:06,VALID,917.759,VALID,0.0,VALID,72.581,VALID,458.069,VALID,24.523,VALID,3.0,VALID,0.583,
2017-08-22, 10:22:06,VALID,917.766,VALID,0.0,VALID,71.445,VALID,460.98,VALID,24.543,VALID,37.0,VALID,0.147,
2017-08-22, 10:23:06,VALID,917.765,VALID,0.0,VALID,71.889,VALID,464.6,VALID,24.667,VALID,16.0,VALID,0.155,
2017-08-22, 10:24:06,VALID,917.767,VALID,0.0,VALID,73.906,VALID,466.488,VALID,24.887,VALID,355.0,VALID,0.436,
2017-08-22, 10:25:06,VALID,917.763,VALID,0.0,VALID,71.531,VALID,461.649,VALID,24.972,VALID,18.0,VALID,0.519,
2017-08-22, 10:26:06,VALID,917.764,VALID,0.0,VALID,71.55,VALID,455.101,VALID,24.97,VALID,21.0,VALID,0.722,
2017-08-22, 10:27:06,VALID,917.75,VALID,0.0,VALID,71.713,VALID,451.374,VALID,25.097,VALID,337.0,VALID,0.354,
2017-08-22, 10:28:06,VALID,917.753,VALID,0.0,VALID,70.526,VALID,448.748,VALID,25.143,VALID,7.0,VALID,0.336,
2017-08-22, 10:29:06,VALID,917.75,VALID,0.0,VALID,71.116,VALID,449.16,VALID,24.883,VALID,31.0,VALID,0.421,
2017-08-22, 10:30:06,VALID,917.75,VALID,0.0,VALID,72.719,VALID,443.276,VALID,24.847,VALID,19.0,VALID,0.139,
2017-08-22, 10:31:06,VALID,917.768,VALID,0.0,VALID,72.245,VALID,439.361,VALID,25.037,VALID,5.0,VALID,0.054,
2017-08-22, 10:32:06,VALID,917.775,VALID,0.0,VALID,71.308,VALID,439.501,VALID,25.233,VALID,334.0,VALID,0.059,
2017-08-22, 10:33:06,VALID,917.796,VALID,0.0,VALID,69.386,VALID,441.574,VALID,25.324,VALID,2.0,VALID,0.223,
2017-08-22, 10:34:06,VALID,917.784,VALID,0.0,VALID,71.651,VALID,444.408,VALID,25.45,VALID,12.0,VALID,0.472,
2017-08-22, 10:35:06,VALID,917.811,VALID,0.0,VALID,70.178,VALID,447.109,VALID,25.422,VALID,352.0,VALID,0.385,
2017-08-22, 10:36:06,VALID,917.838,VALID,0.0,VALID,70.302,VALID,449.782,VALID,25.435,VALID,358.0,VALID,0.067,